Tracking 29892 objects as of 21-Nov-2024
HD Live streaming from Space Station
objects crossing your sky now

METEOR 2-11 DEB

Track METEOR 2-11 DEB now!
10-day predictions


NORAD ID: 40710
Int'l Code: 1984-072M
Perigee: 894.9 km
Apogee: 946.5 km
Inclination: 82.5 °
Period: 103.3 minutes
Semi major axis: 7291 km
RCS: Unknown
Launch date: July 5, 1984
Source: Commonwealth of Independent States (former USSR) (CIS)
Launch site: PLESETSK MISSILE AND SPACE COMPLEX (PKMTR)

Note: This is SATELLITE DEBRIS
Your satellite tracking list
Your tracking list is empty




NASA's NSSDC Master Catalog

Two Line Element Set (TLE):
1 40710U 84072M   24324.18343828  .00001497  00000-0  11095-2 0  9994
2 40710  82.5262 117.2252 0035389 228.0546 131.7602 13.94307574509236
Source of the keplerian elements: AFSPC